Temperature
23 23 23 23 23 23 23 23 22 23 23 24 24 23 23 23 22 22 21 20 20 19 19 18 18 17 17 17 17 17 16 16 16 16 16 16 15 15 15 15 15 15 15 15
22 23 23 23 23 23 23 23 23 23 23 24 24 23 23 22 22 21 21 20 20 19 19 18 18 17 17 17 17 16 16 16 16 16 15 15 15 15 15 15 15 15 15 15
21 22 22 22 23 23 23 23 23 23 23 24 23 23 22 22 21 21 21 20 20 19 18 18 18 17 17 17 16 16 16 16 15 15 15 15 15 15 15 15 15 15 15 14
20 21 20 22 24 24 23 23 24 24 23 23 23 23 22 22 21 21 20 20 19 19 18 18 18 17 17 17 16 16 16 16 15 15 15 15 15 15 15 14 14 14 14 14
19 19 20 22 23 23 23 22 24 23 23 23 23 22 22 21 21 20 20 19 19 19 18 18 18 17 17 17 16 16 16 15 15 15 15 15 15 14 14 14 14 14 14 14
19 19 19 21 23 23 23 21 23 23 22 22 22 21 21 20 20 20 19 19 19 18 18 18 18 17 17 17 16 16 16 15 15 15 15 15 14 14 14 14 14 14 13 13
18 19 20 21 22 22 21 20 22 22 22 22 21 20 20 20 19 19 19 18 18 18 18 17 17 17 17 17 16 16 16 15 15 15 15 14 14 14 14 13 13 13 13 13
19 18 19 21 21 21 21 22 21 21 21 21 20 20 19 19 19 18 18 18 17 17 17 17 17 17 17 16 16 16 15 15 15 15 14 14 14 13 13 13 13 13 13 13
19 19 20 20 20 20 20 20 20 20 20 20 19 19 19 18 18 18 18 17 17 17 17 17 17 16 16 16 16 16 15 15 15 14 14 14 13 13 13 13 13 13 13 13
19 19 20 20 19 19 19 19 19 19 19 19 19 18 18 18 17 17 17 17 17 16 16 16 16 16 16 16 15 15 15 14 14 14 13 13 13 13 13 13 13 12 12 12
18 19 19 19 19 18 18 18 18 18 18 18 18 18 18 17 17 17 16 16 16 16 16 15 15 15 15 15 15 15 14 14 14 13 13 13 13 12 12 12 12 12 12 12
17 18 18 18 18 18 17 17 17 17 17 17 17 17 17 17 17 16 16 16 15 15 15 15 15 15 15 15 14 14 14 14 13 13 13 13 12 12 12 12 12 12 12 12
17 17 17 17 17 17 17 17 17 17 17 17 17 17 17 17 16 16 16 15 15 15 15 14 14 14 14 14 14 14 14 14 13 13 13 12 12 12 12 11 11 11 11 11
16 16 16 16 16 16 16 16 16 16 16 16 16 16 16 16 16 16 15 15 15 14 14 14 14 14 14 14 14 14 13 13 13 13 12 12 12 12 11 11 11 11 11 11
16 16 15 15 15 15 15 15 15 16 16 16 16 16 16 16 15 15 15 15 14 14 14 14 13 13 13 13 13 13 13 13 13 12 12 12 11 11 11 11 11 11 11 11
15 15 15 15 15 15 15 15 15 15 15 15 15 15 15 15 15 15 14 14 14 13 13 13 13 13 13 13 13 13 13 12 12 12 12 11 11 11 11 11 11 11 11 11
15 15 15 15 15 15 15 14 15 15 15 15 15 15 15 15 14 14 14 14 13 13 13 13 13 13 13 13 13 12 12 12 12 12 11 11 11 11 11 11 10 10 10 10
14 14 14 14 14 14 14 14 14 14 14 14 14 14 14 14 14 13 13 13 13 13 13 13 12 12 12 12 12 12 12 12 12 11 11 11 11 11 10 10 10 10 10 10
13 13 13 13 13 14 14 14 14 14 14 14 13 14 14 13 13 13 13 13 12 12 12 12 12 12 12 12 12 12 12 11 11 11 11 11 10 10 10 10 10 10 10 10
12 12 13 13 13 13 13 13 13 13 13 13 13 13 13 13 12 12 12 12 12 12 12 12 12 12 12 12 12 11 11 11 11 10 10 10 10 10 10 10 9 9 9 9
12 12 12 12 12 13 13 13 13 12 12 12 12 12 12 12 12 12 12 12 11 12 12 12 11 11 11 11 11 11 11 10 10 10 10 10 10 9 9 9 9 9 9 9
11 11 11 12 12 12 12 12 12 12 12 12 11 12 11 11 11 11 11 11 11 11 11 11 11 11 11 11 10 10 10 10 10 10 9 9 9 9 9 9 9 8 8 8
11 11 11 11 11 12 11 11 11 11 11 11 11 11 11 11 11 11 11 11 11 11 11 11 11 10 10 10 10 10 10 9 9 9 9 9 9 9 8 8 8 8 8 7
10 10 11 11 11 11 11 11 10 10 10 10 10 10 10 10 10 10 10 10 10 10 10 10 10 10 10 10 9 9 9 9 9 9 8 8 8 8 8 8 7 7 7 7
9 10 10 10 10 10 10 10 10 10 10 10 10 10 10 10 10 10 10 10 10 10 10 10 9 9 9 9 9 9 9 8 8 8 8 8 8 8 7 7 7 7 7 7
9 9 10 10 10 10 9 9 9 9 9 9 9 9 9 9 9 9 9 9 9 9 9 9 9 9 9 8 8 8 8 8 8 7 7 7 7 7 7 7 7 6 6 6
8 9 9 9 9 9 9 9 9 9 9 9 9 9 9 9 9 9 9 9 9 9 9 8 8 8 8 8 8 8 7 7 7 7 7 7 7 7 6 6 6 6 6 6
Wind_Speed
11 9 9 9 10 11 11 10 9 6 5 3 3 4 4 4 5 6 6 6 7 7 7 7 6 6 6 6 6 6 6 6 6 6 5 4 4 4 4 4 4 4 4 4
13 12 12 13 12 12 12 11 10 8 6 1 2 3 3 3 4 5 6 6 7 7 7 7 7 6 6 6 7 7 7 6 6 6 6 4 4 4 4 3 3 4 5 5
10 10 11 14 13 12 11 10 8 7 3 1 2 3 3 3 5 5 5 5 5 6 7 8 7 7 7 7 6 7 7 7 7 7 7 6 5 4 5 4 3 4 4 5
8 9 11 6 4 7 8 8 7 4 2 2 3 3 2 2 4 4 5 5 5 5 6 7 7 8 8 7 7 7 7 8 8 7 7 6 5 5 5 4 4 4 4 5
7 9 9 7 5 5 7 7 5 3 2 2 3 3 2 2 2 3 3 3 4 4 4 5 7 8 9 8 8 7 8 8 8 8 7 7 6 5 5 4 4 4 3 5
7 8 8 4 1 2 4 5 2 2 2 2 2 3 2 2 3 3 3 3 3 4 4 5 5 6 8 8 8 8 8 8 9 8 8 7 6 5 4 4 5 5 5 5
11 10 6 2 1 2 4 2 0 0 1 1 2 1 1 3 3 4 3 3 3 3 3 3 5 6 7 8 8 7 7 8 8 8 9 8 6 5 5 4 4 5 5 4
8 9 6 1 1 2 2 2 2 3 2 2 2 3 2 3 3 4 3 3 3 3 2 2 4 5 6 6 7 7 7 8 8 8 8 7 6 5 5 5 5 5 4 4
4 3 0 1 2 3 4 4 4 4 3 2 1 2 2 2 2 3 3 3 3 3 3 3 3 3 4 4 6 7 7 7 8 8 7 7 7 6 5 5 5 4 4 4
5 3 2 2 2 3 4 5 5 4 3 2 0 1 1 2 2 2 2 3 3 3 3 3 3 3 3 3 6 7 7 6 6 7 7 7 6 5 5 5 5 5 4 4
7 5 4 3 3 4 4 3 4 4 3 3 2 1 1 1 2 2 2 3 3 3 3 3 3 3 3 4 5 6 7 7 6 6 6 5 5 4 5 4 5 6 5 5
7 6 5 6 5 5 5 4 4 4 4 4 2 2 1 1 2 2 2 3 3 3 3 3 4 4 4 4 5 6 6 6 6 5 6 5 5 3 2 3 5 6 5 5
8 7 7 7 7 5 5 5 5 5 4 4 3 2 2 1 2 2 3 3 3 3 3 3 3 3 4 4 5 6 5 6 5 6 6 6 6 6 4 1 2 3 5 6
6 6 6 7 6 5 5 6 6 5 5 4 2 2 1 1 2 2 3 3 2 3 3 3 3 4 4 4 4 5 5 6 6 5 5 5 6 6 6 5 4 2 3 6
8 7 6 7 7 6 5 5 5 5 4 3 2 2 2 2 3 2 2 3 2 2 3 4 4 4 4 4 4 4 4 5 5 5 5 5 5 5 5 6 5 4 3 3
8 7 6 7 7 6 5 5 5 5 3 2 2 2 2 2 2 2 2 3 3 3 3 3 4 4 4 4 3 3 4 6 6 5 5 5 5 5 5 5 5 5 5 4
8 7 6 7 7 6 6 6 5 5 3 3 3 2 2 2 3 3 3 3 3 3 3 3 3 3 4 4 4 3 3 4 6 5 5 5 5 5 5 5 5 5 4 6
8 8 8 7 7 6 6 6 5 5 4 3 3 2 2 3 3 3 3 3 2 2 2 2 3 3 4 4 4 3 4 4 4 4 4 4 4 4 4 5 5 5 4 5
8 8 8 8 7 6 5 5 5 4 3 3 3 3 3 2 3 2 2 3 3 3 2 2 3 3 3 4 3 3 4 4 4 4 4 5 4 4 4 4 4 4 4 4
7 7 7 7 7 6 5 4 4 4 4 3 3 3 3 3 3 3 3 2 2 2 2 3 3 3 3 4 3 3 3 4 3 3 3 4 4 4 3 3 3 4 4 4
6 6 6 6 5 5 4 4 3 4 3 3 3 3 3 3 2 3 2 2 1 2 3 4 3 2 2 3 3 3 3 3 3 3 3 3 3 3 3 3 3 3 3 3
5 6 5 4 4 4 3 3 2 3 2 2 2 3 2 2 2 2 2 2 2 3 2 2 2 2 2 3 3 3 3 3 3 3 3 3 3 3 3 3 3 3 2 2
5 5 4 3 4 3 3 2 2 2 2 2 2 2 2 2 2 3 2 1 2 3 3 2 3 4 4 3 3 3 3 3 3 3 3 3 3 3 3 3 2 2 2 2
5 4 4 3 2 2 2 2 2 2 2 2 2 1 1 1 1 1 2 3 3 3 2 4 6 5 4 3 3 3 3 3 3 3 3 3 2 2 2 2 2 2 2 2
5 4 3 2 2 2 2 2 2 1 1 1 1 1 1 1 1 1 2 3 4 4 2 4 6 5 3 3 3 3 3 3 3 3 3 3 3 2 2 2 2 2 2 1
5 3 2 1 1 1 1 1 1 1 1 1 1 0 0 1 1 2 2 3 4 3 3 3 4 4 3 3 3 3 3 3 3 3 3 3 3 3 2 2 2 2 2 2
4 3 1 0 1 0 1 1 1 1 1 1 1 0 1 1 2 2 3 3 3 3 3 3 3 3 3 3 4 3 3 3 3 3 3 3 3 3 3 3 2 2 2 3
Wind_Direction
260 260 262 255 248 244 242 246 256 260 251 226 161 145 146 148 152 151 157 160 163 163 165 164 171 174 172 169 164 163 160 160 158 144 135 133 140 145 136 134 131 128 130 127
260 254 256 254 245 242 244 243 250 256 259 234 154 133 136 154 158 162 168 169 172 170 167 169 174 172 169 166 166 165 167 159 145 139 134 134 142 144 133 127 125 123 124 123
267 258 257 251 238 233 238 239 244 248 251 154 147 128 156 185 179 175 170 165 172 174 176 179 180 173 168 167 168 167 160 150 149 148 145 151 160 145 140 143 141 134 132 124
267 262 248 246 226 221 233 240 242 235 224 193 169 161 168 172 180 176 166 165 171 175 180 181 176 172 169 166 166 166 162 159 158 157 154 157 161 153 151 155 157 149 145 138
257 261 261 249 235 226 234 240 240 234 210 220 181 173 163 138 129 143 148 153 161 171 177 176 178 175 170 169 171 172 168 164 161 158 155 159 164 162 161 158 153 153 154 144
250 255 252 253 271 266 256 240 251 226 206 193 192 217 193 104 107 112 119 124 134 159 170 173 177 170 171 175 176 179 173 167 162 161 159 167 170 166 159 152 156 157 158 156
245 252 256 283 304 264 228 232 22 232 208 206 201 160 107 99 99 103 110 119 127 141 153 162 166 168 180 179 182 178 166 162 159 161 163 165 163 162 154 154 155 159 160 164
238 244 243 69 220 250 314 5 23 354 358 29 77 100 103 105 105 115 124 130 131 132 133 149 160 172 180 180 174 161 156 159 160 161 164 164 159 161 162 163 162 167 165 167
244 245 319 22 339 330 349 344 350 355 10 48 56 122 120 126 127 136 141 146 142 140 143 147 159 171 174 165 154 150 153 159 161 159 159 158 160 164 170 169 168 176 177 177
259 256 267 297 290 298 332 330 333 340 351 351 240 159 155 163 150 137 141 144 147 154 155 155 161 171 168 150 154 154 157 158 158 159 157 157 159 168 175 178 178 182 183 185
275 272 282 291 292 308 318 320 318 323 321 309 288 250 214 190 159 143 143 148 158 167 170 172 163 165 155 154 157 160 163 165 167 160 156 154 154 165 174 182 186 185 188 182
268 282 292 290 300 309 311 304 299 300 299 301 286 271 232 195 155 155 163 156 165 174 176 174 166 165 161 160 165 171 174 170 165 159 157 158 155 144 127 157 162 170 174 174
282 290 297 297 304 307 303 299 289 282 279 278 279 264 239 187 167 165 170 167 175 178 180 168 163 163 160 163 171 177 176 167 164 165 167 168 167 168 167 141 129 167 175 175
285 281 281 287 292 294 291 291 288 278 276 263 252 239 221 181 166 170 176 165 169 181 180 166 168 173 168 174 176 178 172 171 168 167 169 173 175 176 176 176 182 199 198 193
279 273 267 276 279 277 275 279 278 268 264 247 224 219 204 187 177 180 163 149 165 193 188 173 175 175 165 176 182 180 170 169 167 163 166 173 176 178 183 187 187 187 178 191
276 270 261 265 266 266 266 265 267 265 261 255 246 221 206 179 164 161 161 163 178 195 193 181 181 173 164 169 170 174 174 170 167 168 172 177 181 185 188 187 188 190 190 190
267 264 262 270 269 269 270 269 267 262 254 256 258 244 218 179 169 175 174 172 183 189 181 178 176 170 169 169 169 169 164 172 177 177 182 185 186 190 189 184 187 191 194 187
268 272 270 267 266 265 266 268 267 262 252 253 258 247 222 194 191 187 182 174 171 174 172 167 165 178 177 173 173 174 175 179 181 185 185 187 189 189 186 186 189 189 182 181
266 267 269 272 274 273 269 267 265 264 255 245 243 236 216 201 195 185 177 174 183 194 190 163 171 184 185 174 168 175 178 181 184 184 179 185 190 191 188 188 186 178 174 173
270 267 268 268 267 267 270 267 259 262 253 243 241 235 223 211 196 188 183 188 198 197 175 159 174 190 184 169 170 182 181 181 182 180 177 178 182 186 185 181 176 173 174 176
282 274 268 265 264 265 265 261 252 252 244 230 228 228 220 209 196 188 176 185 190 155 165 168 173 176 171 168 179 183 176 173 174 179 182 181 182 183 183 183 179 180 182 180
278 276 267 267 270 268 261 250 244 255 254 238 237 234 215 199 190 176 170 193 167 147 160 170 168 171 172 173 188 177 170 168 169 176 180 177 178 182 184 181 178 180 176 173
281 277 266 255 255 255 246 234 226 232 228 235 238 230 207 191 190 180 191 187 163 165 165 172 159 150 158 170 177 165 159 159 162 168 167 170 175 177 176 174 170 164 162 168
303 306 291 271 249 235 230 228 219 212 200 219 235 229 198 193 217 207 165 159 163 166 169 164 157 165 171 173 163 162 161 160 162 164 162 167 171 173 168 161 161 161 161 163
315 305 293 270 253 246 230 214 197 190 188 193 193 199 184 188 184 175 157 156 155 149 154 167 167 170 177 167 163 165 164 166 162 158 161 165 165 161 154 152 156 157 160 163
319 309 280 249 255 261 228 201 195 193 190 194 195 157 118 135 145 154 152 155 155 154 162 171 174 178 182 169 167 167 166 167 167 165 164 162 160 158 159 160 157 150 155 157
331 323 312 1 333 288 245 203 180 177 200 203 196 199 193 169 154 153 153 158 162 167 172 177 181 184 172 164 166 174 177 171 163 158 162 164 166 167 164 161 158 156 156 158
Height
1486 1484 1485 1487 1488 1487 1488 1489 1494 1491 1488 1485 1484 1486 1489 1492 1494 1496 1499 1502 1504 1507 1509 1512 1514 1517 1519 1521 1523 1526 1528 1530 1532 1535 1537 1540 1542 1544 1546 1548 1549 1551 1553 1554
1486 1482 1482 1484 1482 1483 1483 1483 1484 1484 1485 1480 1482 1485 1488 1491 1493 1495 1498 1500 1503 1505 1507 1510 1512 1514 1516 1519 1521 1523 1526 1528 1530 1533 1535 1537 1540 1542 1544 1546 1548 1549 1551 1552
1491 1482 1482 1485 1477 1477 1479 1478 1480 1484 1483 1480 1482 1485 1488 1490 1492 1494 1496 1499 1501 1503 1505 1507 1509 1512 1514 1516 1519 1521 1524 1526 1528 1530 1533 1535 1538 1540 1542 1544 1546 1547 1549 1551
1491 1489 1497 1478 1467 1469 1473 1474 1474 1476 1478 1479 1481 1484 1487 1489 1490 1492 1494 1496 1498 1501 1503 1505 1507 1510 1512 1514 1517 1519 1521 1523 1526 1528 1530 1533 1535 1537 1539 1542 1544 1545 1547 1549
1491 1492 1485 1473 1467 1469 1473 1475 1473 1474 1476 1478 1480 1482 1485 1487 1488 1490 1492 1494 1496 1498 1501 1503 1505 1507 1510 1512 1515 1517 1519 1521 1523 1526 1528 1530 1533 1535 1537 1539 1541 1543 1545 1546
1489 1494 1491 1476 1467 1467 1472 1477 1473 1473 1476 1477 1479 1483 1485 1486 1487 1489 1490 1492 1494 1496 1498 1500 1503 1505 1507 1509 1512 1514 1516 1518 1521 1523 1525 1528 1530 1533 1535 1537 1539 1540 1542 1544
1487 1487 1480 1470 1468 1469 1481 1480 1473 1473 1475 1477 1479 1482 1484 1484 1486 1488 1489 1491 1492 1494 1496 1498 1500 1502 1504 1507 1509 1511 1514 1516 1518 1520 1523 1525 1528 1530 1532 1534 1536 1538 1540 1541
1482 1486 1484 1471 1471 1473 1475 1472 1473 1474 1475 1477 1478 1480 1482 1483 1485 1486 1488 1489 1491 1492 1494 1496 1498 1500 1502 1504 1506 1509 1511 1513 1515 1518 1520 1522 1525 1527 1530 1532 1533 1535 1537 1538
1477 1478 1473 1472 1473 1473 1474 1474 1474 1475 1476 1477 1478 1480 1481 1483 1484 1485 1486 1488 1489 1490 1492 1494 1496 1497 1499 1501 1504 1506 1508 1511 1513 1515 1517 1519 1521 1524 1526 1529 1530 1532 1533 1535
1472 1470 1471 1472 1473 1473 1474 1475 1475 1475 1476 1476 1477 1479 1480 1482 1483 1484 1485 1486 1487 1489 1490 1492 1493 1495 1497 1499 1501 1503 1505 1508 1510 1512 1514 1516 1518 1521 1523 1525 1526 1528 1530 1531
1471 1470 1470 1471 1472 1473 1473 1474 1474 1474 1475 1476 1477 1477 1478 1479 1481 1482 1483 1484 1486 1487 1488 1489 1491 1493 1495 1496 1498 1500 1502 1505 1507 1509 1511 1513 1515 1517 1519 1521 1523 1525 1526 1528
1472 1471 1471 1471 1471 1472 1472 1472 1473 1474 1474 1475 1475 1476 1476 1478 1479 1480 1481 1483 1484 1485 1486 1488 1489 1490 1492 1494 1496 1497 1499 1501 1503 1506 1508 1510 1512 1514 1516 1518 1520 1522 1523 1525
1470 1469 1470 1470 1470 1470 1471 1471 1472 1472 1473 1473 1473 1473 1474 1475 1477 1478 1479 1480 1482 1483 1484 1486 1487 1488 1490 1491 1493 1495 1496 1498 1500 1502 1505 1507 1509 1511 1512 1515 1517 1518 1520 1521
1468 1468 1468 1469 1469 1469 1469 1469 1470 1470 1470 1470 1470 1471 1472 1473 1474 1476 1477 1478 1479 1481 1482 1483 1485 1486 1487 1489 1491 1492 1494 1495 1497 1499 1501 1503 1505 1507 1509 1511 1512 1514 1516 1517
1466 1466 1466 1466 1466 1466 1467 1467 1467 1467 1467 1467 1468 1469 1470 1471 1472 1473 1475 1476 1477 1479 1480 1481 1482 1483 1485 1486 1488 1489 1491 1492 1494 1496 1498 1500 1502 1504 1506 1507 1509 1510 1511 1513
1463 1463 1463 1463 1463 1464 1464 1464 1465 1465 1465 1465 1466 1467 1468 1469 1470 1471 1472 1473 1474 1476 1477 1478 1479 1480 1482 1483 1485 1486 1488 1489 1491 1493 1495 1497 1499 1501 1502 1504 1505 1506 1507 1509
1459 1459 1459 1460 1460 1460 1461 1461 1462 1462 1462 1463 1464 1464 1465 1466 1467 1468 1470 1471 1472 1473 1474 1475 1476 1478 1479 1480 1482 1483 1484 1486 1488 1490 1492 1493 1495 1497 1499 1500 1501 1503 1504 1505
1456 1456 1456 1456 1457 1457 1457 1458 1458 1459 1459 1460 1461 1461 1462 1463 1464 1466 1467 1468 1469 1470 1471 1473 1474 1475 1476 1478 1479 1480 1481 1483 1485 1486 1488 1490 1492 1494 1495 1496 1498 1499 1500 1501
1452 1452 1453 1453 1453 1453 1453 1454 1454 1455 1456 1457 1458 1458 1459 1460 1462 1463 1464 1464 1465 1466 1468 1469 1471 1472 1473 1474 1476 1477 1479 1480 1482 1483 1485 1486 1488 1490 1491 1493 1494 1495 1496 1497
1448 1448 1448 1448 1449 1449 1450 1450 1451 1452 1453 1454 1454 1455 1456 1457 1458 1459 1460 1461 1462 1463 1464 1466 1467 1469 1470 1471 1473 1474 1475 1477 1478 1480 1481 1483 1484 1486 1487 1489 1490 1491 1492 1493
1444 1444 1444 1444 1444 1445 1446 1447 1448 1448 1449 1450 1451 1452 1453 1454 1455 1456 1456 1457 1458 1460 1461 1462 1464 1465 1466 1468 1469 1471 1472 1473 1474 1476 1478 1479 1481 1482 1484 1485 1486 1487 1488 1489
1441 1441 1440 1440 1440 1441 1442 1443 1444 1444 1445 1447 1448 1449 1449 1450 1451 1452 1453 1454 1455 1456 1458 1459 1460 1461 1463 1464 1465 1467 1468 1469 1471 1472 1474 1476 1477 1478 1480 1481 1482 1483 1484 1485
1437 1437 1436 1437 1437 1438 1439 1440 1440 1441 1442 1443 1444 1445 1446 1446 1447 1448 1448 1450 1451 1453 1454 1455 1456 1458 1459 1460 1462 1463 1465 1466 1467 1469 1470 1472 1473 1475 1476 1477 1478 1479 1480 1481
1433 1433 1433 1434 1434 1436 1436 1437 1438 1439 1439 1440 1441 1442 1443 1443 1444 1445 1445 1446 1448 1449 1450 1451 1453 1454 1456 1457 1458 1460 1461 1463 1464 1466 1467 1468 1470 1471 1472 1473 1474 1475 1476 1477
1430 1430 1430 1431 1432 1433 1434 1435 1436 1436 1437 1438 1438 1439 1440 1440 1440 1441 1442 1443 1444 1446 1447 1448 1450 1451 1452 1453 1455 1456 1458 1459 1461 1462 1463 1465 1466 1467 1468 1469 1470 1471 1472 1473
1428 1428 1428 1429 1430 1431 1432 1432 1433 1433 1434 1434 1435 1436 1436 1437 1437 1438 1438 1440 1441 1442 1444 1445 1447 1448 1449 1450 1451 1453 1454 1456 1457 1458 1460 1461 1462 1463 1464 1465 1466 1467 1468 1469
1426 1426 1427 1427 1428 1429 1429 1429 1429 1430 1431 1431 1431 1432 1432 1433 1434 1434 1435 1436 1437 1439 1440 1442 1443 1444 1445 1447 1448 1449 1451 1452 1454 1455 1456 1457 1459 1460 1461 1462 1463 1463 1464 1464